Wetterdaten: aktuell Freitag, 12.07.2024 21:45
Datum Zeit Temp. A. Feuchte A. Luftdruck Regen Wind Windrichtung Windrichtung Sonnenschein Solar Taupunkt Windchill Windben
12.07.2024 21:45 17,7 C 90 % 1010,1 hPa 0,0 l/m 10,7 km/h (2 Bft) S-SW 200 0 min 0 W/m 16,0 C 17,7 C 22,5 km/h (4 Bft)
12.07.2024 21:40 17,8 C 90 % 1010,0 hPa 0,0 l/m 10,9 km/h (2 Bft) S-SW 204 0 min 0 W/m 16,1 C 17,8 C 16,1 km/h (3 Bft)
12.07.2024 21:35 17,8 C 90 % 1010,1 hPa 0,0 l/m 8,3 km/h (2 Bft) S-SW 206 0 min 0 W/m 16,1 C 17,8 C 12,9 km/h (3 Bft)
12.07.2024 21:30 17,8 C 90 % 1009,9 hPa 0,0 l/m 9,3 km/h (2 Bft) S-SW 194 0 min 0 W/m 16,1 C 17,8 C 16,1 km/h (3 Bft)
12.07.2024 21:25 17,8 C 89 % 1010,0 hPa 0,0 l/m 8,5 km/h (2 Bft) S 178 0 min 0 W/m 16,0 C 17,8 C 16,1 km/h (3 Bft)
12.07.2024 21:20 17,8 C 89 % 1010,0 hPa 0,0 l/m 4,2 km/h (1 Bft) SW 223 0 min 0 W/m 16,0 C 17,8 C 9,7 km/h (2 Bft)
12.07.2024 21:15 17,7 C 89 % 1010,0 hPa 0,0 l/m 0,1 km/h (0 Bft) SW 215 0 min 0 W/m 15,9 C 17,7 C 6,4 km/h (2 Bft)
12.07.2024 21:10 17,7 C 89 % 1010,0 hPa 0,0 l/m 0,0 km/h (0 Bft) S-SW 213 0 min 0 W/m 15,9 C 17,7 C 0,0 km/h (0 Bft)
12.07.2024 21:05 17,8 C 88 % 1009,7 hPa 0,0 l/m 0,0 km/h (0 Bft) S-SO 151 0 min 0 W/m 15,8 C 17,8 C 0,0 km/h (0 Bft)
12.07.2024 21:00 17,8 C 88 % 1009,5 hPa 0,0 l/m 0,0 km/h (0 Bft) SO 145 0 min 0 W/m 15,8 C 17,8 C 0,0 km/h (0 Bft)
12.07.2024 20:55 17,8 C 88 % 1009,2 hPa 0,0 l/m 0,0 km/h (0 Bft) SO 145 0 min 0 W/m 15,8 C 17,8 C 0,0 km/h (0 Bft)
12.07.2024 20:50 17,8 C 88 % 1008,9 hPa 0,2 l/m 0,0 km/h (0 Bft) SO 145 0 min 0 W/m 15,8 C 17,8 C 0,0 km/h (0 Bft)
12.07.2024 20:45 17,8 C 87 % 1008,8 hPa 0,0 l/m 0,0 km/h (0 Bft) SO 145 0 min 0 W/m 15,6 C 17,8 C 0,0 km/h (0 Bft)
12.07.2024 20:40 17,8 C 87 % 1008,7 hPa 0,0 l/m 0,0 km/h (0 Bft) SO 145 0 min 0 W/m 15,6 C 17,8 C 0,0 km/h (0 Bft)
12.07.2024 20:35 17,8 C 87 % 1008,6 hPa 0,0 l/m 0,0 km/h (0 Bft) SO 145 0 min 0 W/m 15,6 C 17,8 C 0,0 km/h (0 Bft)
12.07.2024 20:30 17,9 C 87 % 1008,6 hPa 0,0 l/m 0,2 km/h (0 Bft) SO 145 0 min 0 W/m 15,7 C 17,9 C 8,0 km/h (2 Bft)
12.07.2024 20:25 17,9 C 86 % 1008,5 hPa 0,0 l/m 0,0 km/h (0 Bft) SO 138 0 min 0 W/m 15,5 C 17,9 C 0,0 km/h (0 Bft)
12.07.2024 20:20 18,0 C 86 % 1008,7 hPa 0,0 l/m 0,0 km/h (0 Bft) SO 138 0 min 0 W/m 15,6 C 18,0 C 0,0 km/h (0 Bft)
12.07.2024 20:15 18,1 C 86 % 1008,7 hPa 0,2 l/m 0,0 km/h (0 Bft) SO 138 0 min 0 W/m 15,7 C 18,1 C 0,0 km/h (0 Bft)
12.07.2024 20:10 18,1 C 85 % 1008,5 hPa 0,2 l/m 0,0 km/h (0 Bft) SO 139 0 min 0 W/m 15,5 C 18,1 C 0,0 km/h (0 Bft)
12.07.2024 20:05 18,2 C 85 % 1008,7 hPa 0,0 l/m 0,0 km/h (0 Bft) S 182 0 min 0 W/m 15,6 C 18,2 C 0,0 km/h (0 Bft)
12.07.2024 20:00 18,3 C 84 % 1008,5 hPa 0,2 l/m 0,0 km/h (0 Bft) S 182 0 min 0 W/m 15,5 C 18,3 C 0,0 km/h (0 Bft)
12.07.2024 19:55 18,3 C 83 % 1008,0 hPa 0,0 l/m 0,0 km/h (0 Bft) NO 55 0 min 0 W/m 15,4 C 18,3 C 0,0 km/h (0 Bft)
12.07.2024 19:50 18,4 C 82 % 1007,6 hPa 0,0 l/m 0,0 km/h (0 Bft) NO 55 0 min 0 W/m 15,3 C 18,4 C 0,0 km/h (0 Bft)
12.07.2024 19:45 18,6 C 82 % 1007,2 hPa 0,0 l/m 0,0 km/h (0 Bft) NO 55 0 min 0 W/m 15,5 C 18,6 C 0,0 km/h (0 Bft)
12.07.2024 19:40 18,7 C 81 % 1007,2 hPa 0,0 l/m 0,7 km/h (0 Bft) NO 55 0 min 0 W/m 15,4 C 18,7 C 6,4 km/h (2 Bft)
12.07.2024 19:35 18,9 C 80 % 1007,2 hPa 0,0 l/m 2,1 km/h (1 Bft) NO 55 0 min 5 W/m 15,4 C 18,9 C 8,0 km/h (2 Bft)
12.07.2024 19:30 19,1 C 80 % 1007,6 hPa 0,0 l/m 4,6 km/h (1 Bft) NO 49 0 min 5 W/m 15,6 C 19,1 C 8,0 km/h (2 Bft)
12.07.2024 19:25 19,3 C 80 % 1007,7 hPa 0,2 l/m 4,1 km/h (1 Bft) NO 48 0 min 5 W/m 15,8 C 19,3 C 9,7 km/h (2 Bft)
12.07.2024 19:20 19,5 C 79 % 1007,8 hPa 0,0 l/m 0,7 km/h (0 Bft) NO 38 0 min 0 W/m 15,8 C 19,5 C 6,4 km/h (2 Bft)
12.07.2024 19:15 19,7 C 78 % 1007,7 hPa 0,0 l/m 1,0 km/h (0 Bft) N-NO 28 0 min 0 W/m 15,8 C 19,7 C 9,7 km/h (2 Bft)
12.07.2024 19:10 20,0 C 77 % 1007,7 hPa 0,0 l/m 8,9 km/h (2 Bft) N-NO 15 0 min 0 W/m 15,8 C 20,0 C 14,5 km/h (3 Bft)
12.07.2024 19:05 20,3 C 76 % 1008,2 hPa 0,0 l/m 7,1 km/h (2 Bft) NW 321 0 min 0 W/m 15,9 C 20,3 C 14,5 km/h (3 Bft)
12.07.2024 19:00 20,8 C 75 % 1008,1 hPa 0,2 l/m 0,0 km/h (0 Bft) N-NW 335 0 min 0 W/m 16,2 C 20,8 C 0,0 km/h (0 Bft)
12.07.2024 18:55 21,1 C 74 % 1007,8 hPa 0,2 l/m 0,0 km/h (0 Bft) N 5 0 min 5 W/m 16,3 C 21,1 C 0,0 km/h (0 Bft)
12.07.2024 18:50 21,4 C 73 % 1008,0 hPa 0,0 l/m 0,0 km/h (0 Bft) N-NW 344 0 min 5 W/m 16,4 C 21,4 C 0,0 km/h (0 Bft)
12.07.2024 18:45 21,8 C 72 % 1008,1 hPa 0,0 l/m 0,0 km/h (0 Bft) N-NW 340 0 min 7 W/m 16,5 C 21,8 C 0,0 km/h (0 Bft)
12.07.2024 18:40 22,4 C 71 % 1008,0 hPa 0,0 l/m 0,0 km/h (0 Bft) N 360 0 min 11 W/m 16,9 C 22,4 C 0,0 km/h (0 Bft)
12.07.2024 18:35 23,0 C 68 % 1007,7 hPa 0,0 l/m 0,0 km/h (0 Bft) NW 313 0 min 16 W/m 16,8 C 23,0 C 0,0 km/h (0 Bft)
12.07.2024 18:30 23,4 C 68 % 1007,5 hPa 0,0 l/m 0,0 km/h (0 Bft) NW 306 0 min 7 W/m 17,1 C 23,4 C 0,0 km/h (0 Bft)
12.07.2024 18:25 23,8 C 67 % 1007,3 hPa 0,0 l/m 0,1 km/h (0 Bft) NW 326 0 min 21 W/m 17,3 C 23,8 C 3,2 km/h (1 Bft)
12.07.2024 18:20 24,1 C 66 % 1007,2 hPa 0,0 l/m 0,0 km/h (0 Bft) N-NW 340 0 min 39 W/m 17,3 C 24,1 C 1,6 km/h (1 Bft)
12.07.2024 18:15 24,5 C 65 % 1007,2 hPa 0,0 l/m 0,0 km/h (0 Bft) N 350 0 min 81 W/m 17,5 C 24,5 C 1,6 km/h (1 Bft)
12.07.2024 18:10 25,1 C 63 % 1007,1 hPa 0,0 l/m 3,2 km/h (1 Bft) N-NW 328 0 min 76 W/m 17,5 C 25,1 C 14,5 km/h (3 Bft)
12.07.2024 18:05 25,6 C 62 % 1007,1 hPa 0,0 l/m 11,5 km/h (2 Bft) N 350 0 min 70 W/m 17,8 C 25,6 C 20,9 km/h (4 Bft)
12.07.2024 18:00 26,1 C 61 % 1007,3 hPa 0,0 l/m 8,0 km/h (2 Bft) N-NW 344 0 min 100 W/m 18,0 C 26,1 C 20,9 km/h (4 Bft)
12.07.2024 17:55 26,4 C 58 % 1007,1 hPa 0,0 l/m 8,8 km/h (2 Bft) W 270 0 min 62 W/m 17,5 C 26,4 C 19,3 km/h (3 Bft)
12.07.2024 17:50 26,8 C 56 % 1006,8 hPa 0,0 l/m 8,7 km/h (2 Bft) W-SW 242 0 min 81 W/m 17,3 C 26,8 C 16,1 km/h (3 Bft)
12.07.2024 17:45 27,1 C 55 % 1006,9 hPa 0,0 l/m 13,5 km/h (3 Bft) SW 216 0 min 153 W/m 17,3 C 27,1 C 24,1 km/h (4 Bft)
12.07.2024 17:40 27,4 C 56 % 1006,9 hPa 0,0 l/m 10,8 km/h (2 Bft) SW 219 5 min 313 W/m 17,8 C 27,4 C 19,3 km/h (3 Bft)
12.07.2024 17:35 27,7 C 54 % 1006,8 hPa 0,0 l/m 13,2 km/h (3 Bft) SW 220 0 min 179 W/m 17,5 C 27,7 C 20,9 km/h (4 Bft)
12.07.2024 17:30 28,0 C 54 % 1006,9 hPa 0,0 l/m 14,4 km/h (3 Bft) W-SW 238 5 min 693 W/m 17,8 C 28,0 C 25,7 km/h (4 Bft)
12.07.2024 17:25 28,0 C 56 % 1007,0 hPa 0,0 l/m 12,0 km/h (2 Bft) W-SW 244 5 min 689 W/m 18,4 C 28,0 C 22,5 km/h (4 Bft)
12.07.2024 17:20 27,9 C 56 % 1006,9 hPa 0,0 l/m 10,1 km/h (2 Bft) W-SW 243 5 min 633 W/m 18,3 C 27,9 C 22,5 km/h (4 Bft)
12.07.2024 17:15 27,9 C 53 % 1007,0 hPa 0,0 l/m 13,3 km/h (3 Bft) SW 234 5 min 615 W/m 17,4 C 27,9 C 24,1 km/h (4 Bft)
12.07.2024 17:10 27,8 C 57 % 1006,9 hPa 0,0 l/m 7,9 km/h (2 Bft) W 266 5 min 628 W/m 18,5 C 27,8 C 16,1 km/h (3 Bft)
12.07.2024 17:05 27,7 C 55 % 1007,1 hPa 0,0 l/m 9,3 km/h (2 Bft) SW 227 5 min 652 W/m 17,8 C 27,7 C 16,1 km/h (3 Bft)
12.07.2024 17:00 27,6 C 55 % 1007,0 hPa 0,0 l/m 10,1 km/h (2 Bft) SW 235 5 min 624 W/m 17,7 C 27,6 C 19,3 km/h (3 Bft)
12.07.2024 16:55 27,6 C 55 % 1007,0 hPa 0,0 l/m 14,5 km/h (3 Bft) W-SW 250 5 min 642 W/m 17,7 C 27,6 C 25,7 km/h (4 Bft)
12.07.2024 16:50 27,8 C 54 % 1006,9 hPa 0,0 l/m 9,1 km/h (2 Bft) S-SW 202 5 min 638 W/m 17,6 C 27,8 C 20,9 km/h (4 Bft)
12.07.2024 16:45 27,7 C 55 % 1007,1 hPa 0,0 l/m 11,1 km/h (2 Bft) W-SW 244 5 min 645 W/m 17,8 C 27,7 C 17,7 km/h (3 Bft)
12.07.2024 16:40 27,6 C 54 % 1007,0 hPa 0,0 l/m 10,5 km/h (2 Bft) SW 219 5 min 654 W/m 17,4 C 27,6 C 17,7 km/h (3 Bft)
12.07.2024 16:35 27,4 C 54 % 1007,0 hPa 0,0 l/m 11,1 km/h (2 Bft) S-SW 208 5 min 656 W/m 17,3 C 27,4 C 19,3 km/h (3 Bft)
12.07.2024 16:30 27,3 C 53 % 1006,9 hPa 0,0 l/m 11,5 km/h (2 Bft) S-SW 207 5 min 693 W/m 16,9 C 27,3 C 19,3 km/h (3 Bft)
12.07.2024 16:25 27,4 C 52 % 1007,0 hPa 0,0 l/m 15,7 km/h (3 Bft) W-SW 250 5 min 675 W/m 16,7 C 27,4 C 25,7 km/h (4 Bft)
12.07.2024 16:20 27,4 C 53 % 1006,9 hPa 0,0 l/m 13,8 km/h (3 Bft) W-SW 250 5 min 707 W/m 17,0 C 27,4 C 25,7 km/h (4 Bft)
12.07.2024 16:15 27,3 C 54 % 1007,0 hPa 0,0 l/m 13,4 km/h (3 Bft) SW 214 5 min 529 W/m 17,2 C 27,3 C 20,9 km/h (4 Bft)
12.07.2024 16:10 27,4 C 54 % 1006,8 hPa 0,0 l/m 14,6 km/h (3 Bft) S 175 0 min 227 W/m 17,3 C 27,4 C 25,7 km/h (4 Bft)
12.07.2024 16:05 27,3 C 56 % 1006,8 hPa 0,0 l/m 13,1 km/h (3 Bft) S-SW 197 5 min 733 W/m 17,7 C 27,3 C 24,1 km/h (4 Bft)
12.07.2024 16:00 27,1 C 57 % 1006,9 hPa 0,0 l/m 10,2 km/h (2 Bft) SW 225 5 min 715 W/m 17,8 C 27,1 C 16,1 km/h (3 Bft)
12.07.2024 15:55 26,9 C 58 % 1007,1 hPa 0,0 l/m 14,7 km/h (3 Bft) SW 227 5 min 828 W/m 17,9 C 26,9 C 29,0 km/h (5 Bft)
12.07.2024 15:50 27,2 C 56 % 1007,1 hPa 0,0 l/m 12,7 km/h (3 Bft) S 184 0 min 308 W/m 17,6 C 27,2 C 29,0 km/h (5 Bft)
12.07.2024 15:45 27,2 C 57 % 1007,2 hPa 0,0 l/m 7,2 km/h (2 Bft) W-SW 248 5 min 587 W/m 17,9 C 27,2 C 12,9 km/h (3 Bft)
12.07.2024 15:40 27,1 C 56 % 1007,3 hPa 0,0 l/m 12,7 km/h (3 Bft) W-SW 252 5 min 545 W/m 17,5 C 27,1 C 22,5 km/h (4 Bft)
12.07.2024 15:35 27,0 C 57 % 1007,3 hPa 0,0 l/m 13,2 km/h (3 Bft) SW 229 5 min 684 W/m 17,7 C 27,0 C 22,5 km/h (4 Bft)
12.07.2024 15:30 26,9 C 55 % 1007,4 hPa 0,0 l/m 13,2 km/h (3 Bft) W-SW 237 5 min 656 W/m 17,1 C 26,9 C 24,1 km/h (4 Bft)
12.07.2024 15:25 26,9 C 57 % 1007,5 hPa 0,0 l/m 9,1 km/h (2 Bft) W 265 5 min 475 W/m 17,6 C 26,9 C 20,9 km/h (4 Bft)
12.07.2024 15:20 26,8 C 61 % 1007,5 hPa 0,0 l/m 6,1 km/h (2 Bft) W-SW 240 5 min 670 W/m 18,6 C 26,8 C 11,3 km/h (2 Bft)
12.07.2024 15:15 26,7 C 57 % 1007,7 hPa 0,0 l/m 13,8 km/h (3 Bft) S-SW 201 0 min 323 W/m 17,5 C 26,7 C 25,7 km/h (4 Bft)
12.07.2024 15:10 26,7 C 59 % 1008,0 hPa 0,0 l/m 11,2 km/h (2 Bft) W-SW 244 5 min 896 W/m 18,0 C 26,7 C 22,5 km/h (4 Bft)
12.07.2024 15:05 26,7 C 59 % 1007,9 hPa 0,0 l/m 11,7 km/h (2 Bft) S-SW 201 0 min 436 W/m 18,0 C 26,7 C 20,9 km/h (4 Bft)
12.07.2024 15:00 26,6 C 60 % 1007,9 hPa 0,0 l/m 10,8 km/h (2 Bft) SW 229 5 min 483 W/m 18,2 C 26,6 C 19,3 km/h (3 Bft)
12.07.2024 14:55 26,6 C 57 % 1008,0 hPa 0,0 l/m 9,9 km/h (2 Bft) S-SW 205 5 min 483 W/m 17,4 C 26,6 C 17,7 km/h (3 Bft)
12.07.2024 14:50 26,6 C 57 % 1008,1 hPa 0,0 l/m 10,5 km/h (2 Bft) W 270 5 min 772 W/m 17,4 C 26,6 C 16,1 km/h (3 Bft)
12.07.2024 14:45 26,6 C 60 % 1008,2 hPa 0,0 l/m 8,9 km/h (2 Bft) SW 229 5 min 571 W/m 18,2 C 26,6 C 17,7 km/h (3 Bft)
12.07.2024 14:40 26,6 C 59 % 1008,2 hPa 0,0 l/m 9,8 km/h (2 Bft) W-SW 247 5 min 599 W/m 17,9 C 26,6 C 17,7 km/h (3 Bft)
12.07.2024 14:35 26,8 C 59 % 1008,2 hPa 0,0 l/m 11,6 km/h (2 Bft) W-SW 255 5 min 490 W/m 18,1 C 26,8 C 17,7 km/h (3 Bft)
12.07.2024 14:30 27,1 C 58 % 1008,3 hPa 0,0 l/m 11,6 km/h (2 Bft) S-SW 197 0 min 406 W/m 18,1 C 27,1 C 22,5 km/h (4 Bft)
12.07.2024 14:25 27,3 C 59 % 1008,3 hPa 0,0 l/m 8,3 km/h (2 Bft) S-SW 211 5 min 733 W/m 18,6 C 27,3 C 14,5 km/h (3 Bft)
12.07.2024 14:20 27,3 C 59 % 1008,4 hPa 0,0 l/m 10,5 km/h (2 Bft) S-SW 209 0 min 418 W/m 18,6 C 27,3 C 20,9 km/h (4 Bft)
12.07.2024 14:15 27,4 C 62 % 1008,4 hPa 0,0 l/m 6,5 km/h (2 Bft) S-SW 192 5 min 691 W/m 19,5 C 27,4 C 12,9 km/h (3 Bft)
12.07.2024 14:10 27,3 C 59 % 1008,4 hPa 0,0 l/m 8,0 km/h (2 Bft) W-SW 252 5 min 735 W/m 18,6 C 27,3 C 17,7 km/h (3 Bft)
12.07.2024 14:05 27,1 C 60 % 1008,5 hPa 0,0 l/m 8,5 km/h (2 Bft) W-SW 242 5 min 940 W/m 18,6 C 27,1 C 16,1 km/h (3 Bft)
12.07.2024 14:00 26,8 C 64 % 1008,5 hPa 0,0 l/m 7,9 km/h (2 Bft) SW 234 5 min 1032 W/m 19,4 C 26,8 C 17,7 km/h (3 Bft)
12.07.2024 13:55 26,6 C 62 % 1008,5 hPa 0,0 l/m 7,2 km/h (2 Bft) S-SW 213 5 min 977 W/m 18,7 C 26,6 C 14,5 km/h (3 Bft)
12.07.2024 13:50 26,4 C 64 % 1008,6 hPa 0,0 l/m 7,7 km/h (2 Bft) W-NW 294 5 min 923 W/m 19,0 C 26,4 C 14,5 km/h (3 Bft)
12.07.2024 13:45 26,0 C 63 % 1008,6 hPa 0,0 l/m 6,2 km/h (2 Bft) W 273 5 min 944 W/m 18,4 C 26,0 C 14,5 km/h (3 Bft)
12.07.2024 13:40 25,8 C 64 % 1008,7 hPa 0,0 l/m 6,9 km/h (2 Bft) SW 222 5 min 745 W/m 18,5 C 25,8 C 14,5 km/h (3 Bft)
12.07.2024 13:35 25,5 C 64 % 1008,7 hPa 0,0 l/m 9,2 km/h (2 Bft) W-SW 251 5 min 800 W/m 18,2 C 25,5 C 16,1 km/h (3 Bft)
12.07.2024 13:30 25,3 C 68 % 1008,8 hPa 0,0 l/m 7,6 km/h (2 Bft) S-SW 200 5 min 821 W/m 19,0 C 25,3 C 12,9 km/h (3 Bft)
12.07.2024 13:25 25,0 C 72 % 1008,9 hPa 0,0 l/m 6,2 km/h (2 Bft) S-SW 196 5 min 664 W/m 19,6 C 25,0 C 12,9 km/h (3 Bft)
12.07.2024 13:20 24,8 C 71 % 1009,0 hPa 0,0 l/m 5,7 km/h (1 Bft) S-SW 193 5 min 561 W/m 19,2 C 24,8 C 12,9 km/h (3 Bft)
12.07.2024 13:15 24,7 C 72 % 1009,0 hPa 0,0 l/m 4,7 km/h (1 Bft) S 173 5 min 515 W/m 19,3 C 24,7 C 11,3 km/h (2 Bft)
12.07.2024 13:10 24,7 C 72 % 1008,9 hPa 0,0 l/m 2,8 km/h (1 Bft) S 170 0 min 404 W/m 19,3 C 24,7 C 11,3 km/h (2 Bft)
12.07.2024 13:05 24,5 C 72 % 1008,9 hPa 0,0 l/m 4,7 km/h (1 Bft) S 184 0 min 478 W/m 19,1 C 24,5 C 11,3 km/h (2 Bft)
12.07.2024 13:00 24,3 C 73 % 1008,8 hPa 0,0 l/m 5,9 km/h (2 Bft) W-SW 241 5 min 554 W/m 19,1 C 24,3 C 12,9 km/h (3 Bft)
12.07.2024 12:55 24,1 C 74 % 1008,8 hPa 0,0 l/m 3,5 km/h (1 Bft) SW 233 5 min 497 W/m 19,2 C 24,1 C 11,3 km/h (2 Bft)
12.07.2024 12:50 23,9 C 75 % 1008,9 hPa 0,0 l/m 6,9 km/h (2 Bft) S-SW 209 5 min 503 W/m 19,2 C 23,9 C 11,3 km/h (2 Bft)
12.07.2024 12:45 23,7 C 75 % 1009,0 hPa 0,0 l/m 6,6 km/h (2 Bft) S-SW 209 0 min 468 W/m 19,0 C 23,7 C 11,3 km/h (2 Bft)
12.07.2024 12:40 23,5 C 76 % 1008,9 hPa 0,0 l/m 5,3 km/h (1 Bft) S-SW 204 0 min 459 W/m 19,0 C 23,5 C 11,3 km/h (2 Bft)
12.07.2024 12:35 23,4 C 77 % 1009,0 hPa 0,0 l/m 4,4 km/h (1 Bft) S-SW 198 0 min 316 W/m 19,1 C 23,4 C 9,7 km/h (2 Bft)
12.07.2024 12:30 23,2 C 76 % 1009,0 hPa 0,0 l/m 7,0 km/h (2 Bft) S-SW 200 0 min 450 W/m 18,7 C 23,2 C 12,9 km/h (3 Bft)
12.07.2024 12:25 23,0 C 78 % 1009,0 hPa 0,0 l/m 3,7 km/h (1 Bft) W-SW 240 0 min 394 W/m 18,9 C 23,0 C 12,9 km/h (3 Bft)
12.07.2024 12:20 22,8 C 78 % 1009,0 hPa 0,0 l/m 4,1 km/h (1 Bft) W-SW 246 0 min 373 W/m 18,8 C 22,8 C 9,7 km/h (2 Bft)
12.07.2024 12:15 22,7 C 79 % 1009,1 hPa 0,0 l/m 2,1 km/h (1 Bft) W-SW 238 0 min 362 W/m 18,9 C 22,7 C 8,0 km/h (2 Bft)
12.07.2024 12:10 22,5 C 80 % 1009,1 hPa 0,0 l/m 6,2 km/h (2 Bft) W-SW 241 0 min 360 W/m 18,9 C 22,5 C 11,3 km/h (2 Bft)
12.07.2024 12:05 22,3 C 80 % 1009,0 hPa 0,0 l/m 1,0 km/h (0 Bft) W-SW 246 0 min 334 W/m 18,7 C 22,3 C 8,0 km/h (2 Bft)
12.07.2024 12:00 22,1 C 80 % 1008,9 hPa 0,0 l/m 5,6 km/h (1 Bft) W 270 0 min 381 W/m 18,5 C 22,1 C 11,3 km/h (2 Bft)
12.07.2024 11:55 21,9 C 80 % 1008,8 hPa 0,0 l/m 5,5 km/h (1 Bft) W-SW 253 0 min 332 W/m 18,3 C 21,9 C 11,3 km/h (2 Bft)
12.07.2024 11:50 21,8 C 81 % 1008,7 hPa 0,0 l/m 3,1 km/h (1 Bft) W-SW 246 0 min 345 W/m 18,4 C 21,8 C 11,3 km/h (2 Bft)
12.07.2024 11:45 21,6 C 81 % 1008,6 hPa 0,0 l/m 3,2 km/h (1 Bft) W-SW 246 0 min 367 W/m 18,2 C 21,6 C 9,7 km/h (2 Bft)
12.07.2024 11:40 21,5 C 81 % 1008,7 hPa 0,0 l/m 5,9 km/h (2 Bft) W-SW 251 0 min 297 W/m 18,1 C 21,5 C 12,9 km/h (3 Bft)
12.07.2024 11:35 21,4 C 82 % 1008,8 hPa 0,0 l/m 5,0 km/h (1 Bft) SW 236 0 min 260 W/m 18,2 C 21,4 C 12,9 km/h (3 Bft)
12.07.2024 11:30 21,3 C 83 % 1008,8 hPa 0,0 l/m 7,5 km/h (2 Bft) SW 229 0 min 251 W/m 18,3 C 21,3 C 12,9 km/h (3 Bft)
12.07.2024 11:25 21,2 C 84 % 1008,9 hPa 0,0 l/m 6,6 km/h (2 Bft) SW 216 0 min 255 W/m 18,4 C 21,2 C 12,9 km/h (3 Bft)
12.07.2024 11:20 21,1 C 84 % 1008,7 hPa 0,0 l/m 1,4 km/h (1 Bft) SW 236 0 min 229 W/m 18,3 C 21,1 C 9,7 km/h (2 Bft)
12.07.2024 11:15 21,0 C 84 % 1008,9 hPa 0,0 l/m 4,3 km/h (1 Bft) SW 236 0 min 211 W/m 18,2 C 21,0 C 9,7 km/h (2 Bft)
12.07.2024 11:10 20,9 C 84 % 1008,8 hPa 0,0 l/m 4,4 km/h (1 Bft) SW 223 0 min 199 W/m 18,1 C 20,9 C 9,7 km/h (2 Bft)
12.07.2024 11:05 20,9 C 85 % 1009,0 hPa 0,0 l/m 4,0 km/h (1 Bft) SW 236 0 min 192 W/m 18,3 C 20,9 C 9,7 km/h (2 Bft)
12.07.2024 11:00 20,8 C 85 % 1008,9 hPa 0,0 l/m 1,9 km/h (1 Bft) S-SW 203 0 min 176 W/m 18,2 C 20,8 C 9,7 km/h (2 Bft)
12.07.2024 10:55 20,8 C 86 % 1009,1 hPa 0,0 l/m 6,2 km/h (2 Bft) SW 216 0 min 165 W/m 18,4 C 20,8 C 16,1 km/h (3 Bft)
12.07.2024 10:50 20,8 C 86 % 1009,2 hPa 0,0 l/m 3,0 km/h (1 Bft) SW 234 0 min 172 W/m 18,4 C 20,8 C 9,7 km/h (2 Bft)
12.07.2024 10:45 20,7 C 86 % 1009,2 hPa 0,0 l/m 4,2 km/h (1 Bft) SW 227 0 min 171 W/m 18,3 C 20,7 C 9,7 km/h (2 Bft)
12.07.2024 10:40 20,6 C 86 % 1009,0 hPa 0,0 l/m 6,0 km/h (2 Bft) W-SW 250 0 min 162 W/m 18,2 C 20,6 C 14,5 km/h (3 Bft)
12.07.2024 10:35 20,5 C 87 % 1008,9 hPa 0,0 l/m 1,7 km/h (1 Bft) SW 223 0 min 151 W/m 18,3 C 20,5 C 8,0 km/h (2 Bft)
12.07.2024 10:30 20,4 C 87 % 1009,1 hPa 0,0 l/m 1,8 km/h (1 Bft) SW 236 0 min 146 W/m 18,2 C 20,4 C 8,0 km/h (2 Bft)
12.07.2024 10:25 20,4 C 88 % 1009,2 hPa 0,0 l/m 0,0 km/h (0 Bft) SW 228 0 min 139 W/m 18,3 C 20,4 C 0,0 km/h (0 Bft)
12.07.2024 10:20 20,4 C 88 % 1009,2 hPa 0,0 l/m 4,4 km/h (1 Bft) SW 228 0 min 153 W/m 18,3 C 20,4 C 11,3 km/h (2 Bft)
12.07.2024 10:15 20,3 C 89 % 1009,4 hPa 0,0 l/m 4,3 km/h (1 Bft) W-SW 247 0 min 172 W/m 18,4 C 20,3 C 11,3 km/h (2 Bft)
12.07.2024 10:10 20,2 C 89 % 1009,5 hPa 0,0 l/m 7,6 km/h (2 Bft) SW 225 0 min 234 W/m 18,3 C 20,2 C 12,9 km/h (3 Bft)
12.07.2024 10:05 19,9 C 90 % 1009,3 hPa 0,0 l/m 2,6 km/h (1 Bft) SW 226 0 min 306 W/m 18,2 C 19,9 C 11,3 km/h (2 Bft)
12.07.2024 10:00 19,9 C 90 % 1009,2 hPa 0,0 l/m 2,7 km/h (1 Bft) W 265 0 min 193 W/m 18,2 C 19,9 C 11,3 km/h (2 Bft)
12.07.2024 09:55 19,8 C 90 % 1009,3 hPa 0,0 l/m 4,5 km/h (1 Bft) S-SW 205 0 min 160 W/m 18,1 C 19,8 C 9,7 km/h (2 Bft)
12.07.2024 09:50 19,8 C 90 % 1009,4 hPa 0,0 l/m 5,9 km/h (2 Bft) SW 219 0 min 132 W/m 18,1 C 19,8 C 12,9 km/h (3 Bft)
12.07.2024 09:45 19,7 C 90 % 1009,5 hPa 0,0 l/m 5,5 km/h (1 Bft) W-SW 244 0 min 104 W/m 18,0 C 19,7 C 12,9 km/h (3 Bft)
12.07.2024 09:40 19,7 C 91 % 1009,5 hPa 0,0 l/m 8,0 km/h (2 Bft) S-SW 195 0 min 109 W/m 18,2 C 19,7 C 14,5 km/h (3 Bft)
12.07.2024 09:35 19,6 C 91 % 1009,5 hPa 0,0 l/m 7,6 km/h (2 Bft) S 186 0 min 93 W/m 18,1 C 19,6 C 19,3 km/h (3 Bft)
12.07.2024 09:30 19,6 C 91 % 1009,7 hPa 0,0 l/m 7,4 km/h (2 Bft) SW 216 0 min 79 W/m 18,1 C 19,6 C 16,1 km/h (3 Bft)
12.07.2024 09:25 19,6 C 91 % 1009,6 hPa 0,0 l/m 5,0 km/h (1 Bft) SW 236 0 min 76 W/m 18,1 C 19,6 C 14,5 km/h (3 Bft)
12.07.2024 09:20 19,6 C 91 % 1009,7 hPa 0,0 l/m 8,1 km/h (2 Bft) S-SW 213 0 min 79 W/m 18,1 C 19,6 C 12,9 km/h (3 Bft)
12.07.2024 09:15 19,5 C 91 % 1009,6 hPa 0,0 l/m 7,6 km/h (2 Bft) S-SW 200 0 min 81 W/m 18,0 C 19,5 C 12,9 km/h (3 Bft)
12.07.2024 09:11 19,5 C 92 % 1009,4 hPa 0,0 l/m 0,1 km/h (0 Bft) S-SW 192 0 min 77 W/m 18,2 C 19,5 C 4,8 km/h (1 Bft)
12.07.2024 09:05 19,4 C 92 % 1009,9 hPa 0,0 l/m 3,4 km/h (1 Bft) W 277 0 min 74 W/m 18,1 C 19,4 C 9,7 km/h (2 Bft)
12.07.2024 09:00 19,4 C 92 % 1009,9 hPa 0,0 l/m 2,7 km/h (1 Bft) W-SW 244 0 min 69 W/m 18,1 C 19,4 C 11,3 km/h (2 Bft)
12.07.2024 08:55 19,4 C 92 % 1009,9 hPa 0,0 l/m 1,9 km/h (1 Bft) S 188 0 min 65 W/m 18,1 C 19,4 C 8,0 km/h (2 Bft)
12.07.2024 08:50 19,3 C 92 % 1010,0 hPa 0,0 l/m 4,2 km/h (1 Bft) S 185 0 min 65 W/m 18,0 C 19,3 C 9,7 km/h (2 Bft)
12.07.2024 08:45 19,2 C 92 % 1010,0 hPa 0,0 l/m 2,3 km/h (1 Bft) S 184 0 min 69 W/m 17,9 C 19,2 C 9,7 km/h (2 Bft)
12.07.2024 08:40 19,2 C 92 % 1010,0 hPa 0,0 l/m 0,0 km/h (0 Bft) S 184 0 min 65 W/m 17,9 C 19,2 C 0,0 km/h (0 Bft)
12.07.2024 08:35 19,1 C 92 % 1010,0 hPa 0,0 l/m 0,0 km/h (0 Bft) S 184 0 min 70 W/m 17,8 C 19,1 C 0,0 km/h (0 Bft)
12.07.2024 08:30 19,0 C 92 % 1010,2 hPa 0,0 l/m 0,0 km/h (0 Bft) S 184 0 min 116 W/m 17,7 C 19,0 C 0,0 km/h (0 Bft)
12.07.2024 08:25 18,9 C 92 % 1010,2 hPa 0,0 l/m 0,9 km/h (0 Bft) S 184 0 min 118 W/m 17,6 C 18,9 C 9,7 km/h (2 Bft)
12.07.2024 08:20 18,8 C 93 % 1010,2 hPa 0,0 l/m 0,0 km/h (0 Bft) S 185 0 min 95 W/m 17,6 C 18,8 C 0,0 km/h (0 Bft)
12.07.2024 08:15 18,7 C 93 % 1010,1 hPa 0,0 l/m 0,0 km/h (0 Bft) S 190 0 min 84 W/m 17,5 C 18,7 C 0,0 km/h (0 Bft)
12.07.2024 08:10 18,6 C 93 % 1010,1 hPa 0,0 l/m 1,3 km/h (1 Bft) S 190 0 min 74 W/m 17,4 C 18,6 C 9,7 km/h (2 Bft)
12.07.2024 08:05 18,6 C 93 % 1010,0 hPa 0,0 l/m 2,5 km/h (1 Bft) S-SO 167 0 min 69 W/m 17,4 C 18,6 C 9,7 km/h (2 Bft)
12.07.2024 08:00 18,5 C 93 % 1009,9 hPa 0,0 l/m 0,0 km/h (0 Bft) S-SO 161 0 min 69 W/m 17,3 C 18,5 C 0,0 km/h (0 Bft)
12.07.2024 07:55 18,4 C 93 % 1009,8 hPa 0,0 l/m 0,0 km/h (0 Bft) S-SO 161 0 min 65 W/m 17,2 C 18,4 C 0,0 km/h (0 Bft)
12.07.2024 07:50 18,4 C 93 % 1009,8 hPa 0,0 l/m 0,0 km/h (0 Bft) S-SO 161 0 min 62 W/m 17,2 C 18,4 C 0,0 km/h (0 Bft)
12.07.2024 07:45 18,3 C 93 % 1009,6 hPa 0,0 l/m 0,0 km/h (0 Bft) S-SO 160 0 min 84 W/m 17,1 C 18,3 C 0,0 km/h (0 Bft)
12.07.2024 07:40 18,3 C 93 % 1009,7 hPa 0,0 l/m 1,2 km/h (1 Bft) S 171 0 min 84 W/m 17,1 C 18,3 C 8,0 km/h (2 Bft)
12.07.2024 07:35 18,2 C 93 % 1010,0 hPa 0,0 l/m 8,4 km/h (2 Bft) S-SW 198 0 min 107 W/m 17,0 C 18,2 C 12,9 km/h (3 Bft)
12.07.2024 07:30 18,0 C 93 % 1009,9 hPa 0,0 l/m 1,5 km/h (1 Bft) S-SO 165 0 min 134 W/m 16,8 C 18,0 C 8,0 km/h (2 Bft)
12.07.2024 07:25 17,8 C 93 % 1009,7 hPa 0,0 l/m 0,0 km/h (0 Bft) SO 138 0 min 113 W/m 16,7 C 17,8 C 0,0 km/h (0 Bft)
12.07.2024 07:20 17,8 C 93 % 1009,6 hPa 0,0 l/m 0,0 km/h (0 Bft) SO 138 0 min 74 W/m 16,7 C 17,8 C 0,0 km/h (0 Bft)
12.07.2024 07:15 17,7 C 93 % 1009,6 hPa 0,0 l/m 0,0 km/h (0 Bft) SO 138 0 min 67 W/m 16,6 C 17,7 C 0,0 km/h (0 Bft)
12.07.2024 07:10 17,6 C 93 % 1009,7 hPa 0,0 l/m 0,0 km/h (0 Bft) SO 138 0 min 65 W/m 16,5 C 17,6 C 0,0 km/h (0 Bft)
12.07.2024 07:05 17,6 C 93 % 1009,6 hPa 0,0 l/m 0,0 km/h (0 Bft) SO 138 0 min 74 W/m 16,5 C 17,6 C 0,0 km/h (0 Bft)
12.07.2024 07:00 17,6 C 93 % 1009,7 hPa 0,0 l/m 0,0 km/h (0 Bft) SO 138 0 min 53 W/m 16,5 C 17,6 C 0,0 km/h (0 Bft)
12.07.2024 06:55 17,6 C 92 % 1009,8 hPa 0,0 l/m 0,0 km/h (0 Bft) SO 135 0 min 37 W/m 16,3 C 17,6 C 0,0 km/h (0 Bft)
12.07.2024 06:50 17,6 C 92 % 1009,9 hPa 0,0 l/m 0,0 km/h (0 Bft) SO 134 0 min 26 W/m 16,3 C 17,6 C 0,0 km/h (0 Bft)
12.07.2024 06:45 17,7 C 92 % 1009,9 hPa 0,0 l/m 0,0 km/h (0 Bft) SO 134 0 min 23 W/m 16,4 C 17,7 C 0,0 km/h (0 Bft)
12.07.2024 06:40 17,7 C 92 % 1009,8 hPa 0,0 l/m 0,0 km/h (0 Bft) NO 55 0 min 30 W/m 16,4 C 17,7 C 0,0 km/h (0 Bft)
12.07.2024 06:35 17,7 C 92 % 1009,8 hPa 0,0 l/m 0,0 km/h (0 Bft) NO 39 0 min 37 W/m 16,4 C 17,7 C 0,0 km/h (0 Bft)
12.07.2024 06:30 17,6 C 92 % 1010,1 hPa 0,0 l/m 0,0 km/h (0 Bft) N-NO 17 0 min 32 W/m 16,3 C 17,6 C 0,0 km/h (0 Bft)
12.07.2024 06:25 17,6 C 92 % 1010,2 hPa 0,0 l/m 0,0 km/h (0 Bft) N-NO 14 0 min 25 W/m 16,3 C 17,6 C 0,0 km/h (0 Bft)
12.07.2024 06:20 17,6 C 92 % 1010,3 hPa 0,0 l/m 0,0 km/h (0 Bft) N-NO 13 0 min 25 W/m 16,3 C 17,6 C 0,0 km/h (0 Bft)
12.07.2024 06:15 17,6 C 92 % 1010,5 hPa 0,0 l/m 0,0 km/h (0 Bft) N-NO 13 0 min 9 W/m 16,3 C 17,6 C 0,0 km/h (0 Bft)
12.07.2024 06:10 17,5 C 92 % 1010,4 hPa 0,0 l/m 0,0 km/h (0 Bft) N-NO 13 0 min 12 W/m 16,2 C 17,5 C 0,0 km/h (0 Bft)
12.07.2024 06:05 17,5 C 92 % 1010,4 hPa 0,0 l/m 0,0 km/h (0 Bft) N-NO 19 0 min 9 W/m 16,2 C 17,5 C 0,0 km/h (0 Bft)
12.07.2024 06:00 17,5 C 92 % 1010,3 hPa 0,0 l/m 0,0 km/h (0 Bft) N-NO 19 0 min 5 W/m 16,2 C 17,5 C 0,0 km/h (0 Bft)
12.07.2024 05:55 17,4 C 92 % 1010,5 hPa 0,0 l/m 0,0 km/h (0 Bft) N-NO 19 0 min 5 W/m 16,1 C 17,4 C 0,0 km/h (0 Bft)
12.07.2024 05:50 17,4 C 92 % 1010,6 hPa 0,0 l/m 0,0 km/h (0 Bft) NO 39 0 min 5 W/m 16,1 C 17,4 C 0,0 km/h (0 Bft)
12.07.2024 05:45 17,4 C 92 % 1010,7 hPa 0,0 l/m 0,0 km/h (0 Bft) NO 39 0 min 0 W/m 16,1 C 17,4 C 0,0 km/h (0 Bft)
12.07.2024 05:40 17,4 C 92 % 1010,4 hPa 0,0 l/m 0,0 km/h (0 Bft) NO 39 0 min 0 W/m 16,1 C 17,4 C 0,0 km/h (0 Bft)
12.07.2024 05:35 17,4 C 92 % 1010,5 hPa 0,0 l/m 0,0 km/h (0 Bft) NO 39 0 min 0 W/m 16,1 C 17,4 C 0,0 km/h (0 Bft)
12.07.2024 05:30 17,3 C 92 % 1010,6 hPa 0,0 l/m 0,0 km/h (0 Bft) NO 39 0 min 0 W/m 16,0 C 17,3 C 0,0 km/h (0 Bft)
12.07.2024 05:25 17,4 C 92 % 1010,6 hPa 0,0 l/m 0,0 km/h (0 Bft) NO 39 0 min 0 W/m 16,1 C 17,4 C 0,0 km/h (0 Bft)
12.07.2024 05:20 17,4 C 92 % 1010,7 hPa 0,0 l/m 0,0 km/h (0 Bft) NO 39 0 min 0 W/m 16,1 C 17,4 C 0,0 km/h (0 Bft)
12.07.2024 05:15 17,3 C 91 % 1010,6 hPa 0,0 l/m 0,0 km/h (0 Bft) NO 39 0 min 0 W/m 15,8 C 17,3 C 0,0 km/h (0 Bft)
12.07.2024 05:10 17,3 C 91 % 1010,6 hPa 0,0 l/m 0,0 km/h (0 Bft) NO 39 0 min 0 W/m 15,8 C 17,3 C 0,0 km/h (0 Bft)
12.07.2024 05:05 17,4 C 91 % 1010,6 hPa 0,0 l/m 0,0 km/h (0 Bft) NO 39 0 min 0 W/m 15,9 C 17,4 C 0,0 km/h (0 Bft)
12.07.2024 05:00 17,4 C 91 % 1010,7 hPa 0,0 l/m 0,0 km/h (0 Bft) NO 39 0 min 0 W/m 15,9 C 17,4 C 0,0 km/h (0 Bft)
12.07.2024 04:55 17,3 C 91 % 1010,8 hPa 0,0 l/m 0,0 km/h (0 Bft) NO 39 0 min 0 W/m 15,8 C 17,3 C 0,0 km/h (0 Bft)
12.07.2024 04:50 17,4 C 91 % 1010,6 hPa 0,0 l/m 0,0 km/h (0 Bft) NO 39 0 min 0 W/m 15,9 C 17,4 C 0,0 km/h (0 Bft)
12.07.2024 04:45 17,4 C 91 % 1010,4 hPa 0,0 l/m 0,0 km/h (0 Bft) NO 39 0 min 0 W/m 15,9 C 17,4 C 0,0 km/h (0 Bft)
12.07.2024 04:40 17,4 C 91 % 1010,4 hPa 0,0 l/m 0,0 km/h (0 Bft) NO 39 0 min 0 W/m 15,9 C 17,4 C 0,0 km/h (0 Bft)
12.07.2024 04:35 17,4 C 91 % 1010,3 hPa 0,0 l/m 0,0 km/h (0 Bft) NO 39 0 min 0 W/m 15,9 C 17,4 C 0,0 km/h (0 Bft)
12.07.2024 04:30 17,4 C 91 % 1010,4 hPa 0,2 l/m 0,0 km/h (0 Bft) NO 39 0 min 0 W/m 15,9 C 17,4 C 0,0 km/h (0 Bft)
12.07.2024 04:25 17,4 C 91 % 1010,5 hPa 0,0 l/m 0,0 km/h (0 Bft) NO 39 0 min 0 W/m 15,9 C 17,4 C 0,0 km/h (0 Bft)
12.07.2024 04:20 17,4 C 91 % 1010,5 hPa 0,0 l/m 0,0 km/h (0 Bft) NO 39 0 min 0 W/m 15,9 C 17,4 C 0,0 km/h (0 Bft)
12.07.2024 04:15 17,4 C 91 % 1010,6 hPa 0,0 l/m 0,0 km/h (0 Bft) NO 39 0 min 0 W/m 15,9 C 17,4 C 0,0 km/h (0 Bft)
12.07.2024 04:10 17,4 C 91 % 1010,5 hPa 0,0 l/m 0,0 km/h (0 Bft) NO 39 0 min 0 W/m 15,9 C 17,4 C 0,0 km/h (0 Bft)
12.07.2024 04:05 17,5 C 91 % 1010,6 hPa 0,0 l/m 0,0 km/h (0 Bft) NO 39 0 min 0 W/m 16,0 C 17,5 C 0,0 km/h (0 Bft)
12.07.2024 04:00 17,5 C 91 % 1010,6 hPa 0,0 l/m 0,0 km/h (0 Bft) NO 39 0 min 0 W/m 16,0 C 17,5 C 0,0 km/h (0 Bft)
12.07.2024 03:55 17,6 C 91 % 1010,7 hPa 0,0 l/m 0,0 km/h (0 Bft) NO 39 0 min 0 W/m 16,1 C 17,6 C 0,0 km/h (0 Bft)
12.07.2024 03:50 17,6 C 91 % 1010,6 hPa 0,0 l/m 0,0 km/h (0 Bft) NO 39 0 min 0 W/m 16,1 C 17,6 C 0,0 km/h (0 Bft)
12.07.2024 03:45 17,7 C 91 % 1010,5 hPa 0,0 l/m 0,0 km/h (0 Bft) NO 39 0 min 0 W/m 16,2 C 17,7 C 0,0 km/h (0 Bft)
12.07.2024 03:40 17,7 C 91 % 1010,5 hPa 0,0 l/m 0,0 km/h (0 Bft) NO 39 0 min 0 W/m 16,2 C 17,7 C 0,0 km/h (0 Bft)
12.07.2024 03:35 17,7 C 91 % 1010,4 hPa 0,0 l/m 0,0 km/h (0 Bft) NO 39 0 min 0 W/m 16,2 C 17,7 C 0,0 km/h (0 Bft)
12.07.2024 03:30 17,8 C 90 % 1010,5 hPa 0,0 l/m 0,0 km/h (0 Bft) NO 39 0 min 0 W/m 16,1 C 17,8 C 0,0 km/h (0 Bft)
12.07.2024 03:25 17,8 C 91 % 1010,5 hPa 0,0 l/m 0,0 km/h (0 Bft) NO 39 0 min 0 W/m 16,3 C 17,8 C 0,0 km/h (0 Bft)
12.07.2024 03:20 17,8 C 91 % 1010,5 hPa 0,0 l/m 0,0 km/h (0 Bft) NO 39 0 min 0 W/m 16,3 C 17,8 C 0,0 km/h (0 Bft)
12.07.2024 03:15 17,8 C 91 % 1010,5 hPa 0,0 l/m 0,0 km/h (0 Bft) NO 39 0 min 0 W/m 16,3 C 17,8 C 0,0 km/h (0 Bft)
12.07.2024 03:10 17,9 C 91 % 1010,7 hPa 0,0 l/m 0,0 km/h (0 Bft) NO 39 0 min 0 W/m 16,4 C 17,9 C 0,0 km/h (0 Bft)
12.07.2024 03:05 17,9 C 90 % 1010,7 hPa 0,0 l/m 0,0 km/h (0 Bft) NO 39 0 min 0 W/m 16,2 C 17,9 C 0,0 km/h (0 Bft)
12.07.2024 03:00 17,9 C 90 % 1010,7 hPa 0,0 l/m 0,0 km/h (0 Bft) NO 39 0 min 0 W/m 16,2 C 17,9 C 0,0 km/h (0 Bft)
12.07.2024 02:55 17,9 C 90 % 1010,8 hPa 0,0 l/m 0,0 km/h (0 Bft) NO 39 0 min 0 W/m 16,2 C 17,9 C 0,0 km/h (0 Bft)
12.07.2024 02:50 18,0 C 90 % 1010,8 hPa 0,0 l/m 0,0 km/h (0 Bft) NO 39 0 min 0 W/m 16,3 C 18,0 C 0,0 km/h (0 Bft)
12.07.2024 02:45 18,1 C 90 % 1011,0 hPa 0,0 l/m 0,0 km/h (0 Bft) NO 39 0 min 0 W/m 16,4 C 18,1 C 0,0 km/h (0 Bft)
12.07.2024 02:40 18,1 C 90 % 1011,0 hPa 0,0 l/m 0,0 km/h (0 Bft) NO 39 0 min 0 W/m 16,4 C 18,1 C 0,0 km/h (0 Bft)
12.07.2024 02:35 18,2 C 90 % 1011,1 hPa 0,0 l/m 0,0 km/h (0 Bft) NO 39 0 min 0 W/m 16,5 C 18,2 C 0,0 km/h (0 Bft)
12.07.2024 02:30 18,2 C 90 % 1011,3 hPa 0,0 l/m 0,0 km/h (0 Bft) NO 39 0 min 0 W/m 16,5 C 18,2 C 0,0 km/h (0 Bft)
12.07.2024 02:25 18,3 C 90 % 1011,2 hPa 0,0 l/m 0,0 km/h (0 Bft) NO 39 0 min 0 W/m 16,6 C 18,3 C 0,0 km/h (0 Bft)
12.07.2024 02:20 18,3 C 90 % 1011,5 hPa 0,0 l/m 0,0 km/h (0 Bft) NO 39 0 min 0 W/m 16,6 C 18,3 C 0,0 km/h (0 Bft)
12.07.2024 02:15 18,3 C 90 % 1011,6 hPa 0,0 l/m 0,0 km/h (0 Bft) NO 39 0 min 0 W/m 16,6 C 18,3 C 0,0 km/h (0 Bft)
12.07.2024 02:10 18,3 C 90 % 1011,7 hPa 0,0 l/m 0,0 km/h (0 Bft) NO 39 0 min 0 W/m 16,6 C 18,3 C 0,0 km/h (0 Bft)
12.07.2024 02:05 18,4 C 89 % 1011,7 hPa 0,0 l/m 0,0 km/h (0 Bft) NO 39 0 min 0 W/m 16,6 C 18,4 C 0,0 km/h (0 Bft)
12.07.2024 02:00 18,4 C 89 % 1011,8 hPa 0,0 l/m 0,0 km/h (0 Bft) NO 39 0 min 0 W/m 16,6 C 18,4 C 0,0 km/h (0 Bft)
12.07.2024 01:55 18,4 C 90 % 1011,8 hPa 0,0 l/m 0,0 km/h (0 Bft) NO 39 0 min 0 W/m 16,7 C 18,4 C 0,0 km/h (0 Bft)
12.07.2024 01:50 18,5 C 90 % 1011,8 hPa 0,0 l/m 0,0 km/h (0 Bft) NO 39 0 min 0 W/m 16,8 C 18,5 C 0,0 km/h (0 Bft)
12.07.2024 01:45 18,6 C 89 % 1011,9 hPa 0,0 l/m 0,0 km/h (0 Bft) NO 39 0 min 0 W/m 16,7 C 18,6 C 0,0 km/h (0 Bft)
12.07.2024 01:40 18,6 C 89 % 1011,9 hPa 0,0 l/m 0,0 km/h (0 Bft) NO 39 0 min 0 W/m 16,7 C 18,6 C 0,0 km/h (0 Bft)
12.07.2024 01:35 18,6 C 89 % 1011,9 hPa 0,0 l/m 0,0 km/h (0 Bft) NO 39 0 min 0 W/m 16,7 C 18,6 C 0,0 km/h (0 Bft)
12.07.2024 01:30 18,7 C 89 % 1012,0 hPa 0,0 l/m 0,0 km/h (0 Bft) NO 39 0 min 0 W/m 16,8 C 18,7 C 0,0 km/h (0 Bft)
12.07.2024 01:25 18,7 C 89 % 1012,0 hPa 0,0 l/m 0,0 km/h (0 Bft) NO 39 0 min 0 W/m 16,8 C 18,7 C 0,0 km/h (0 Bft)
12.07.2024 01:20 18,7 C 89 % 1012,0 hPa 0,0 l/m 0,0 km/h (0 Bft) NO 39 0 min 0 W/m 16,8 C 18,7 C 0,0 km/h (0 Bft)
12.07.2024 01:15 18,8 C 89 % 1012,1 hPa 0,0 l/m 0,0 km/h (0 Bft) NO 39 0 min 0 W/m 16,9 C 18,8 C 0,0 km/h (0 Bft)
12.07.2024 01:10 18,9 C 89 % 1012,3 hPa 0,0 l/m 0,0 km/h (0 Bft) NO 39 0 min 0 W/m 17,0 C 18,9 C 0,0 km/h (0 Bft)
12.07.2024 01:05 18,9 C 89 % 1012,3 hPa 0,0 l/m 0,0 km/h (0 Bft) NO 39 0 min 0 W/m 17,0 C 18,9 C 0,0 km/h (0 Bft)
12.07.2024 01:00 19,0 C 89 % 1012,4 hPa 0,0 l/m 0,0 km/h (0 Bft) NO 39 0 min 0 W/m 17,1 C 19,0 C 0,0 km/h (0 Bft)
12.07.2024 00:55 19,1 C 89 % 1012,5 hPa 0,0 l/m 0,0 km/h (0 Bft) NO 39 0 min 0 W/m 17,2 C 19,1 C 0,0 km/h (0 Bft)
12.07.2024 00:50 19,1 C 89 % 1012,4 hPa 0,0 l/m 0,0 km/h (0 Bft) NO 39 0 min 0 W/m 17,2 C 19,1 C 0,0 km/h (0 Bft)
12.07.2024 00:45 19,2 C 89 % 1012,4 hPa 0,0 l/m 0,0 km/h (0 Bft) NO 39 0 min 0 W/m 17,3 C 19,2 C 0,0 km/h (0 Bft)
12.07.2024 00:30 19,3 C 88 % 1012,5 hPa 0,0 l/m 0,0 km/h (0 Bft) N 0 0 min 0 W/m 17,3 C 19,3 C 0,0 km/h (0 Bft)
12.07.2024 00:25 19,4 C 88 % 1012,6 hPa 0,0 l/m 0,0 km/h (0 Bft) N 0 0 min 0 W/m 17,4 C 19,4 C 0,0 km/h (0 Bft)
12.07.2024 00:20 19,4 C 88 % 1012,5 hPa 0,0 l/m 0,0 km/h (0 Bft) N 0 0 min 0 W/m 17,4 C 19,4 C 0,0 km/h (0 Bft)
12.07.2024 00:15 19,5 C 88 % 1012,7 hPa 0,0 l/m 0,0 km/h (0 Bft) NO 39 0 min 0 W/m 17,5 C 19,5 C 0,0 km/h (0 Bft)
12.07.2024 00:10 19,5 C 88 % 1012,8 hPa 0,0 l/m 0,0 km/h (0 Bft) NO 39 0 min 0 W/m 17,5 C 19,5 C 0,0 km/h (0 Bft)
12.07.2024 00:05 19,6 C 88 % 1012,6 hPa 0,0 l/m 0,0 km/h (0 Bft) NO 39 0 min 0 W/m 17,6 C 19,6 C 0,0 km/h (0 Bft)
12.07.2024 00:00 19,6 C 88 % 1012,8 hPa 0,0 l/m 0,0 km/h (0 Bft) NO 39 0 min 0 W/m 17,6 C 19,6 C 0,0 km/h (0 Bft)
_ Min-Zeit 04:55 16:25 16:05 - 00:00 - - - - 19:50 04:55 00:00
Minimum _ 17,3 C 52 % 1006,8 hPa - 0,0 km/h (0 Bft) - - - - 15,3 C 17,3 C 0,0 km/h (0 Bft)
_ Max-Zeit 17:25 07:00 00:00 04:30 16:25 - - 12:50 14:00 13:25 17:25 15:50
Maximum _ 28,0 C 93 % 1012,8 hPa 0,2 l/m 15,7 km/h
W-SW (3 Bft)
- - 5 min 1032 W/m 19,6 C 28,0 C 29,0 km/h
S (5 Bft)
Durchschnitt _ 21,0 C 81 % 1009,4 hPa #1,6 l/m 3,6 km/h (1 Bft) NO - #4:10 h 191 W/m 17,2 C 21,0 C 7,6 km/h (2 Bft)
Private Wetterstation Burgrieden